Regional Weather Roundup
Issued by NWS

Home | Current Version | Previous Version | Graphics & Text | Print | Product List | Glossary On
Versions: 1 2 3 4 5 6 7 8 9 10 11 12 13 14 15 16 17 18 19 20 21 22 23 24 25 26 27 28 29 30 31 32 33 34 35 36 37 38 39 40 41 42 43 44 45 46 47 48 49 50
000
ASUS43 KTOP 212159
RWRKS

WEATHER ROUNDUP FOR KANSAS
NATIONAL WEATHER SERVICE GOODLAND KS
400 PM CST WED FEB 21 2018

NOTE:  "FAIR" INDICATES FEW OR NO CLOUDS BELOW 12,000 FEET WITH NO
SIGNIFICANT WEATHER AND/OR OBSTRUCTIONS TO VISIBILITY.

KSZ001>006-013>018-027>032-041>047-212300-
NORTHWEST KANSAS

CITY           SKY/WX    TMP DP  RH WIND       PRES   REMARKS
GOODLAND       CLOUDY    28   1  31 SE12G22   30.26F WCI  18
HAYS           CLOUDY    25   2  37 NE12      30.43S WCI  14
HILL CITY      CLOUDY    28  -1  28 E6        30.42F
RUSSELL        CLOUDY    29   1  30 NE9       30.43R
$$

KSZ061>065-074>080-084>089-212300-
SOUTHWEST KANSAS

CITY           SKY/WX    TMP DP  RH WIND       PRES   REMARKS
DODGE CITY     CLOUDY    26   1  34 NE14      30.36S WCI  14
GARDEN CITY    CLOUDY    24  -1  33 E9        30.34S
GREAT BEND     PTSUNNY   27   4  37 NE10      30.43S WCI  17
LIBERAL        CLOUDY    27   8  44 MISG        N/A
$$

KSZ066>073-081>083-090>101-212300-
SOUTHEAST KANSAS

CITY           SKY/WX    TMP DP  RH WIND       PRES   REMARKS
CHANUTE        CLOUDY    29  24  82 NE12      30.45R WCI  19
COFFEYVILLE    CLOUDY    28  25  88 NE10      30.46R WCI  19
HUTCHINSON     CLOUDY    25  13  60 NE14      30.42F WCI  13
MEDICINE LODGE   N/A     26   9  48 NE14      30.41R WCI  14
NEWTON         CLOUDY    24  18  77 NE16      30.42F WCI  11
PARSONS        CLOUDY    27  25  92 NE8       30.45R
WICHITA INTL   CLOUDY    28  19  69 NE16      30.41S WCI  16
WICHITA JABRA  CLOUDY    26  19  74 NE17      30.41F WCI  13
WICHITA MCCONL PTSUNNY   26  18  70 NE16G25   30.40F WCI  14
WINFIELD       CLOUDY    28  24  85 NE10      30.42R WCI  19
$$

KSZ007>012-019>026-033>040-048>060-102>105-212300-
NORTHEAST KANSAS

CITY           SKY/WX    TMP DP  RH WIND       PRES   REMARKS
CONCORDIA      CLOUDY    28   7  41 E10       30.48S WCI  19
EMPORIA        CLOUDY    24  18  77 N12       30.46F WCI  13
LAWRENCE       PTSUNNY   27  21  78 NE13      30.51F WCI  16
MANHATTAN      CLOUDY    29  16  58 NE10      30.50S WCI  20
OLATHE IND     CLOUDY    27  22  81 NE10      30.49S WCI  17
OLATHE EXE     CLOUDY    26  21  81 NE9       30.48S
SALINA         CLOUDY    28  10  46 NE10      30.49R WCI  19
TOPEKA BILLARD CLOUDY    27  20  75 N10       30.51S WCI  17
TOPEKA FORBES  CLOUDY    27  19  72 NE9       30.49S
$$




USA.gov is the U.S. government's official web portal to all federal, state and local government web resources and services.